This is the latest recevied weather packets stored in our database for station/object KK4WXG. If no packets are shown the sender has not sent any weather packets the latest 10 day(s).
| Time | Temp. | Humidity | Pressure | Rain* | Wind** | Luminosity | Snow |
|---|---|---|---|---|---|---|---|
| 1777482624 | 14.44° C | 83% | 1011.2 hPa | 0 mm | - | 123 W/m² | - |
| 1777482321 | 14.44° C | 83% | 1011.3 hPa | 0 mm | - | 102 W/m² | - |
| 1777482018 | 14.44° C | 81% | 1011.2 hPa | 0 mm | - | 113 W/m² | - |
| 1777481716 | 14.44° C | 81% | 1011.5 hPa | 0 mm | - | 132 W/m² | - |
| 1777481413 | 14.44° C | 81% | 1011.5 hPa | 0 mm | - | 154 W/m² | - |
| 1777481109 | 14.44° C | 82% | 1011.4 hPa | 0 mm | - | 215 W/m² | - |
| 1777480806 | 13.89° C | 82% | 1011.5 hPa | 0 mm | - | 159 W/m² | - |
| 1777480502 | 13.89° C | 82% | 1011.6 hPa | 0 mm | - | 186 W/m² | - |
| 1777480199 | 13.89° C | 83% | 1011.5 hPa | 0 mm | - | 112 W/m² | - |
| 1777479895 | 13.89° C | 82% | 1011.7 hPa | 0 mm | - | 101 W/m² | - |
| 1777479592 | 13.89° C | 83% | 1012.1 hPa | 0 mm | - | 116 W/m² | - |
| 1777479290 | 13.89° C | 82% | 1011.9 hPa | 0 mm | - | 83 W/m² | - |
| 1777478986 | 13.89° C | 83% | 1012.2 hPa | 0 mm | - | 97 W/m² | - |
| 1777478683 | 13.89° C | 83% | 1011.9 hPa | 0 mm | - | 127 W/m² | - |
| 1777478379 | 13.33° C | 85% | 1012.1 hPa | 0 mm | - | 125 W/m² | - |
| 1777478076 | 13.33° C | 85% | 1012.3 hPa | 0 mm | - | 96 W/m² | - |
| 1777477772 | 13.33° C | 85% | 1012.5 hPa | 0 mm | - | 96 W/m² | - |
| 1777477468 | 13.89° C | 85% | 1012.5 hPa | 0 mm | - | 106 W/m² | - |
| 1777477165 | 13.89° C | 84% | 1012.5 hPa | 0 mm | - | 136 W/m² | - |
| 1777476861 | 13.89° C | 85% | 1012.6 hPa | 0 mm | - | 122 W/m² | - |
| 1777476560 | 13.33° C | 84% | 1012.6 hPa | 0 mm | - | 111 W/m² | - |
| 1777476255 | 13.33° C | 83% | 1012.9 hPa | 0 mm | - | 118 W/m² | - |
| 1777475951 | 13.33° C | 83% | 1012.8 hPa | 0 mm | - | 137 W/m² | - |
| 1777475648 | 13.33° C | 82% | 1013.1 hPa | 0 mm | - | 111 W/m² | - |
| 1777475344 | 13.33° C | 82% | 1013.1 hPa | 0 mm | - | 118 W/m² | - |
* Rain latest hour (hover to see other rain measurements)
** Current wind speed in m/s (hover to see current wind gust speed)